[[{"header":{"parameterUnit":"m.s-1","parameterCategory":1,"la1":30.2991,"la2":30.254,"lo1":-89.0895,"lo2":-89.0444,"dy":0.0017,"dx":0.0017,"nx":28,"ny":28,"refTime":"2025-09-12T03:00:00:Z","depth":0,"parameterNumber":2,"parameterNumberName":"U-component_of_WINDS"},"data":[0,0,0,0,0,0,0,0,0,0,0,0,0,0,0,0,0,0,0,0,0,0,0,0,0,0,0,0,0,0,0,0,0,0,0,0,0,0,0,0,0,0,0,0,0,0,0,0,0,0,0,0,0,0,0,0,0,0,2.4174,2.4172,0,2.4032,2.4031,2.4029,2.3926,2.3925,2.3924,2.3923,2.3771,2.3768,2.3764,0,0,0,0,0,0,0,0,0,0,0,0,0,2.4347,2.4344,2.4174,2.4172,2.417,2.4033,2.4031,2.4029,2.3926,2.3925,2.3924,2.3923,2.3772,2.3768,2.3764,0,0,0,0,0,0,0,0,0,0,0,0,0,2.4245,2.4343,2.4174,2.4103,2.4095,2.4033,2.4031,2.4028,2.3926,2.3925,2.3924,2.3922,2.3773,2.3768,2.3763,2.3759,0,0,2.3749,2.3746,0,0,0,0,0,0,0,0,2.4251,2.4239,2.4115,2.4108,2.4099,2.3996,2.4036,2.3938,2.3926,2.399,2.3923,2.3922,2.3846,2.3835,2.3811,2.3752,2.3746,2.3748,2.3745,2.3743,2.3742,0,0,0,0,0,0,0,2.4258,2.4244,2.4118,2.4113,2.4103,2.4075,2.4059,2.4017,2.3927,2.3984,2.3977,2.3962,2.3841,2.3816,2.3807,2.3743,2.3748,2.3744,2.3741,2.3739,2.3669,2.367,0,0,0,0,0,0,2.4277,2.4251,2.4122,2.4113,2.4173,2.4073,2.4055,2.403,2.3927,2.391,2.3963,2.3957,2.3825,2.3813,2.3801,2.3786,2.3743,2.3739,2.3736,2.3668,2.367,2.3671,0,0,0,0,0,0,2.4282,2.4267,2.4128,2.418,2.416,2.4071,2.4044,2.4028,2.4002,2.3911,2.3893,2.3954,2.3824,2.3808,2.377,2.378,2.3736,2.3732,2.3667,2.3669,2.367,2.3759,0,0,0,0,0,0,2.4287,2.4269,2.4269,2.4181,2.4158,2.4102,2.4044,2.4026,2.3995,2.3987,2.3898,2.3882,2.3821,2.3778,2.3765,2.3772,2.3728,2.3666,2.3668,2.367,2.3755,2.3763,2.3771,0,0,0,0,0,2.4294,2.4298,2.4269,2.4254,2.4156,2.4103,2.4089,2.4022,2.3997,2.3993,2.3934,2.3885,2.3782,2.3775,2.376,2.3765,2.3665,2.3667,2.3669,2.3751,2.3762,2.3771,0,0,0,0,0,0,2.4387,2.4285,2.4252,2.4229,2.4176,2.4086,2.408,2.4036,2.3986,2.398,2.3896,2.3876,2.3847,2.3802,2.3797,2.3754,2.3716,2.3716,2.3784,2.3793,2.3801,2.3811,2.3724,0,0,0,0,0,2.4406,2.4374,2.4286,2.4274,2.4249,2.417,2.4144,2.4097,2.4037,2.4013,2.3951,2.3893,2.3846,2.3818,2.377,2.3749,2.3725,2.3744,2.3753,2.376,2.3759,2.3741,2.3747,2.3679,2.3679,2.3679,0,0,2.4442,2.4383,2.4367,2.4291,2.4244,2.421,2.4151,2.4118,2.4091,2.4007,2.3967,2.392,2.3849,2.3818,2.3802,2.378,2.3773,2.3763,2.3769,2.3764,2.3744,2.375,2.3756,2.368,2.368,2.368,0,0,2.4491,2.4445,2.4428,2.4383,2.4313,2.426,2.4257,2.4173,2.4139,2.4099,2.4034,2.3999,2.3923,2.3874,2.3839,2.3869,2.382,2.3856,2.3897,2.388,2.3885,2.3889,2.3896,2.39,2.3856,2.3857,2.3857,0,2.4544,2.4493,2.4425,2.4395,2.4362,2.4287,2.4268,2.4226,2.4144,2.4121,2.41,2.4,2.3948,2.3903,2.391,2.3886,2.3876,2.3864,2.389,2.3894,2.3897,2.3903,2.3906,2.3861,2.3861,2.386,2.386,0,2.456,2.4526,2.452,2.4445,2.4411,2.4387,2.4312,2.4286,2.4242,2.419,2.4148,2.4082,2.4019,2.4005,2.3961,2.3953,2.3942,2.3907,2.3867,2.3909,2.3913,2.3915,2.3868,2.3866,2.3865,2.3863,0,0,2.4661,2.455,2.4548,2.4512,2.443,2.44,2.4372,2.4312,2.429,2.4236,2.4207,2.4143,2.411,2.407,2.402,2.4006,2.4029,2.3971,2.3968,2.3981,2.4012,2.4037,2.4041,2.3998,2.3998,2.3998,2.4017,0,2.4695,2.4642,2.4579,2.4546,2.4512,2.444,2.4414,2.436,2.4311,2.4272,2.4216,2.4172,2.4133,2.4108,2.4091,2.403,2.4033,2.4028,2.3966,2.3964,2.3983,2.4044,2.407,2.4092,2.4018,2.4019,2.4019,0,2.4726,2.4678,2.4642,2.4562,2.4544,2.4523,2.4462,2.4428,2.4362,2.4327,2.4284,2.423,2.4192,2.416,2.4105,2.4102,2.4073,2.4039,2.4038,2.4027,2.3992,2.4031,2.4097,2.4099,2.4021,2.4021,2.4021,0,2.48,2.4725,2.4694,2.4666,2.4572,2.4558,2.4517,2.4452,2.4419,2.4366,2.4343,2.4285,2.4253,2.4207,2.4138,2.4121,2.4089,2.4051,2.4055,2.4057,2.4049,2.405,2.4108,2.4036,2.4036,2.4036,2.4036,0,2.4841,2.4821,2.4725,2.4706,2.468,2.4608,2.4583,2.4536,2.4478,2.4445,2.438,2.435,2.4262,2.4221,2.4166,2.4126,2.4113,2.4081,2.4066,2.4085,2.4089,2.4062,2.4058,2.4037,2.4037,2.4037,2.4036,0,2.4918,2.4853,2.4813,2.4729,2.4707,2.4692,2.4617,2.4593,2.4542,2.4501,2.4487,2.4404,2.4351,2.4279,2.4203,2.4166,2.4133,2.4112,2.4156,2.4146,2.4154,2.4153,2.4194,2.4194,2.4126,2.4127,2.4128,0,2.4947,2.493,2.4844,2.4819,2.4782,2.4742,2.4709,2.4637,2.4604,2.4529,2.4513,2.4457,2.4407,2.4326,2.4257,2.4198,2.4173,2.4191,2.4163,2.4182,2.4168,2.4169,2.4165,2.4197,2.4198,2.4199,2.42,0,2.5005,2.4974,2.493,2.4876,2.4839,2.4792,2.4741,2.4724,2.4639,2.4606,2.4553,2.4516,2.4439,2.4382,2.4314,2.4269,2.4219,2.421,2.4207,2.4225,2.425,2.4233,2.4171,2.4208,2.4208,2.4207,2.4207,2.4206,2.5055,2.5036,2.4973,2.4926,2.4882,2.4836,2.4809,2.4754,2.471,2.4644,2.4604,2.4552,2.4484,2.4389,2.4346,2.4301,2.4281,2.4278,2.4277,2.4276,2.4281,2.426,2.4289,2.4289,2.4288,2.4288,2.4288,0,2.5107,2.5063,2.5021,2.4954,2.4916,2.4877,2.4819,2.4789,2.4745,2.4688,2.4642,2.4579,2.4524,2.4451,2.4389,2.4367,2.4343,2.4353,2.4352,2.4342,2.4304,2.4312,2.4374,2.4374,2.4374,2.4374,2.4374,2.4374,2.5129,2.5094,2.5056,2.4996,2.4951,2.4903,2.4872,2.4828,2.4782,2.4717,2.4672,2.4626,2.4561,2.4494,2.444,2.4419,2.4398,2.4415,2.4387,2.4353,2.4345,2.4337,2.4344,2.4412,2.4412,2.4428,2.4428,2.4428]},{"header":{"parameterUnit":"m.s-1","parameterCategory":1,"la1":30.2991,"la2":30.254,"lo1":-89.0895,"lo2":-89.0444,"dy":0.0017,"dx":0.0017,"nx":28,"ny":28,"refTime":"2025-09-12T03:00:00:Z","depth":0,"parameterNumber":3,"parameterNumberName":"V-component_of_WINDS"},"data":[0,0,0,0,0,0,0,0,0,0,0,0,0,0,0,0,0,0,0,0,0,0,0,0,0,0,0,0,0,0,0,0,0,0,0,0,0,0,0,0,0,0,0,0,0,0,0,0,0,0,0,0,0,0,0,0,0,0,2.9051,2.9052,0,2.9089,2.9089,2.909,2.9099,2.9099,2.9098,2.9098,2.9133,2.9134,2.9136,0,0,0,0,0,0,0,0,0,0,0,0,0,2.8986,2.8987,2.9051,2.9052,2.9052,2.9089,2.9089,2.909,2.9099,2.9099,2.9098,2.9098,2.9133,2.9134,2.9136,0,0,0,0,0,0,0,0,0,0,0,0,0,2.9018,2.8987,2.9051,2.9061,2.9062,2.9089,2.9089,2.909,2.9099,2.9099,2.9098,2.9098,2.9132,2.9134,2.9136,2.9154,0,0,2.9141,2.9142,0,0,0,0,0,0,0,0,2.9016,2.902,2.9059,2.9061,2.9062,2.9089,2.9079,2.9111,2.9099,2.9085,2.9098,2.9098,2.9119,2.9121,2.9129,2.9155,2.9157,2.9141,2.9142,2.9143,2.9144,0,0,0,0,0,0,0,2.9014,2.9019,2.9066,2.906,2.9062,2.9063,2.9068,2.9085,2.9103,2.9086,2.9087,2.9092,2.9119,2.9127,2.913,2.9157,2.9141,2.9143,2.9144,2.9145,2.9203,2.9203,0,0,0,0,0,0,2.901,2.9017,2.9065,2.9067,2.9038,2.9065,2.907,2.9081,2.9103,2.9106,2.9092,2.9092,2.9125,2.9128,2.9131,2.9155,2.9143,2.9145,2.9146,2.9202,2.9203,2.9203,0,0,0,0,0,0,2.9009,2.9014,2.9063,2.9042,2.9049,2.9066,2.9079,2.9082,2.909,2.9107,2.911,2.9097,2.9125,2.9129,2.9149,2.9157,2.9145,2.9147,2.9202,2.9202,2.9203,2.9203,0,0,0,0,0,0,2.9007,2.9014,2.9021,2.9042,2.905,2.9081,2.9079,2.9083,2.9093,2.9094,2.9113,2.9116,2.9125,2.9146,2.9151,2.9159,2.9148,2.9201,2.9202,2.9203,2.9202,2.9203,2.9204,0,0,0,0,0,2.9004,2.9018,2.9021,2.9027,2.9059,2.9081,2.9085,2.9096,2.9094,2.9101,2.9113,2.9115,2.9155,2.9148,2.9153,2.9162,2.9201,2.9202,2.9203,2.9201,2.9203,2.9204,0,0,0,0,0,0,2.8994,2.902,2.9024,2.9045,2.9061,2.9082,2.9092,2.9097,2.9112,2.9112,2.9124,2.9128,2.9148,2.9157,2.9149,2.9182,2.9178,2.918,2.9175,2.9177,2.9178,2.9175,2.915,0,0,0,0,0,2.8995,2.9011,2.9033,2.9049,2.9057,2.9073,2.9083,2.9091,2.9107,2.9113,2.9126,2.9141,2.9157,2.9167,2.9183,2.9204,2.9209,2.9212,2.9214,2.9214,2.9216,2.923,2.9232,2.9207,2.9207,2.9207,0,0,2.8995,2.9012,2.9021,2.9048,2.9061,2.9078,2.9079,2.9095,2.9108,2.9115,2.9136,2.9146,2.9164,2.9185,2.9194,2.9193,2.9224,2.9216,2.9216,2.9218,2.9231,2.9233,2.9236,2.9208,2.9208,2.9208,0,0,2.9005,2.9018,2.9035,2.9049,2.907,2.9081,2.9085,2.9106,2.9114,2.9136,2.9142,2.9157,2.9184,2.9197,2.9207,2.9226,2.9229,2.923,2.9236,2.9249,2.9251,2.9253,2.9261,2.9263,2.9232,2.9232,2.9232,0,2.9002,2.9028,2.9042,2.906,2.9072,2.9082,2.9099,2.9111,2.9135,2.9144,2.9142,2.9178,2.9191,2.9216,2.9221,2.9228,2.9234,2.9228,2.925,2.9252,2.9254,2.9262,2.9264,2.9232,2.9232,2.9232,2.9232,0,2.9025,2.9044,2.9054,2.908,2.9093,2.911,2.9127,2.9139,2.9146,2.9157,2.918,2.9195,2.9216,2.9222,2.9228,2.9249,2.9248,2.9248,2.9244,2.9256,2.9264,2.9267,2.9232,2.9232,2.9232,2.9232,0,0,2.9027,2.9063,2.9067,2.908,2.9105,2.9119,2.9137,2.9159,2.917,2.9187,2.9203,2.9227,2.9229,2.924,2.9248,2.926,2.9276,2.9259,2.926,2.9262,2.9301,2.9301,2.9304,2.9278,2.9279,2.9279,2.93,0,2.904,2.9075,2.9089,2.9116,2.9135,2.9146,2.9162,2.9179,2.9191,2.9208,2.922,2.9238,2.9238,2.9246,2.9258,2.9271,2.9284,2.927,2.9293,2.9294,2.9289,2.9308,2.9307,2.9326,2.9303,2.9304,2.9304,0,2.9059,2.908,2.911,2.9136,2.9144,2.9158,2.9181,2.9197,2.9217,2.9225,2.924,2.9248,2.9268,2.9264,2.9292,2.9282,2.9293,2.9301,2.9302,2.9305,2.93,2.9312,2.9332,2.9335,2.9308,2.9308,2.9308,0,2.9059,2.9094,2.9117,2.9128,2.9158,2.9169,2.9182,2.9202,2.9215,2.9235,2.9244,2.9264,2.9276,2.9292,2.9305,2.9301,2.9333,2.9329,2.934,2.934,2.9346,2.9345,2.9369,2.9352,2.9352,2.9352,2.9352,0,2.9073,2.9091,2.9118,2.9132,2.9153,2.917,2.9191,2.9204,2.9223,2.924,2.925,2.9266,2.9283,2.9301,2.9312,2.9335,2.9339,2.9346,2.9349,2.9346,2.9345,2.9353,2.9352,2.9353,2.9353,2.9352,2.9352,0,2.9075,2.9094,2.9121,2.9149,2.9157,2.9171,2.9195,2.921,2.9223,2.9245,2.9251,2.9272,2.9294,2.931,2.9337,2.9345,2.9369,2.9371,2.9363,2.9364,2.9375,2.9374,2.9405,2.941,2.9389,2.9389,2.9389,0,2.9083,2.9098,2.9129,2.9142,2.9156,2.9177,2.9191,2.9209,2.9223,2.925,2.9261,2.9285,2.9304,2.9339,2.9356,2.9378,2.9381,2.9391,2.9384,2.9381,2.9382,2.9382,2.9384,2.9391,2.9391,2.9392,2.9392,0,2.9094,2.9104,2.9125,2.9151,2.9168,2.9189,2.9209,2.9219,2.924,2.9256,2.928,2.9296,2.9326,2.9349,2.9373,2.9386,2.9393,2.9394,2.9398,2.9395,2.939,2.9394,2.9366,2.9393,2.9393,2.9393,2.9393,2.9392,2.91,2.9115,2.914,2.9164,2.9182,2.9202,2.9218,2.9235,2.9256,2.9283,2.9292,2.9318,2.934,2.9374,2.9387,2.9407,2.9406,2.9411,2.9413,2.9414,2.9415,2.9387,2.9411,2.9411,2.9411,2.9411,2.9411,0,2.9113,2.9131,2.9153,2.9183,2.9203,2.921,2.9233,2.9249,2.9272,2.9293,2.9313,2.9342,2.9365,2.9385,2.941,2.9422,2.9426,2.9428,2.9427,2.943,2.9413,2.9408,2.9424,2.9424,2.9424,2.9424,2.9424,2.9424,2.9122,2.9149,2.9162,2.9198,2.9215,2.9241,2.9255,2.9273,2.9291,2.9323,2.9343,2.9358,2.9379,2.9405,2.9427,2.9433,2.9442,2.9443,2.9449,2.9433,2.9431,2.943,2.9425,2.9445,2.9445,2.9465,2.9465,2.9465]}]]